Weather History for Danville, VA

Change the Weather History Date:

Monday, April 23, 2012

  Actual Average Record
Temperature  
Mean Temperature 41 °F 60 °F  
Max Temperature 49 °F 72 °F 95 °F (1985)
Min Temperature 33 °F 49 °F 31 °F (1982)
Degree Days  
Heating Degree Days 24 6  
Month to date heating degree days 212 197  
Since 1 July heating degree days 3190 3708  
Cooling Degree Days 0 1  
Month to date cooling degree days 16 22  
Year to date cooling degree days 27 25  
Moisture  
Dew Point 38 °F    
Average Humidity 75    
Maximum Humidity 93    
Minimum Humidity 56    
Precipitation  
Precipitation 0.06 in 0.11 in 0.75 in (1974)
Month to date precipitation 1.53 2.69  
Year to date precipitation 9.19 13.23  
Snow  
Snow 0.00 in - - ()
Month to date snowfall 0.0  
Since 1 July snowfall 3.0  
Snow Depth 0.00 in    
Sea Level Pressure  
Sea Level Pressure 29.55 in    
Wind  
Wind Speed 7 mph (West)    
Max Wind Speed 21 mph    
Max Gust Speed 26 mph    
Visibility 10 miles    
Events Rain    
T = Trace of Precipitation, MM = Missing Value Source: NWS Daily Summary

Daily Weather History Graph

Daily Weather History Graph

Search for Another Location

Airport:

Trip Planner

Search our weather history database for the weather conditions in past years. The results will help you decide how hot, cold, wet, or windy it might be!

Date:

Astronomy

Apr. 23, 2012 Rise Set
Actual Time 6:32 AM EDT 7:59 PM EDT
Civil Twilight 6:05 AM EDT 8:26 PM EDT
Nautical Twilight 5:32 AM EDT 8:58 PM EDT
Astronomical Twilight 4:58 AM EDT 9:33 PM EDT
Moon 7:46 AM EDT 10:23 PM EDT
Length of Visible Light 14h 20m
Length of Day
13h 26m
Waxing Crescent, 5% of the Moon is Illuminated
Apr 23
Waxing Crescent
Apr 29
First Quarter
May 5
Full
May 12
Last Quarter
May 20
New

Hourly Weather History & Observations

Time (EDT) Temp. Windchill Dew Point Humidity Pressure Visibility Wind Dir Wind Speed Gust Speed Precip Events Conditions
12:53 AM 46.0 °F 42.5 °F 44.1 °F 93% 29.52 in 10.0 mi West 6.9 mph - 0.00 in   Overcast
1:53 AM 45.0 °F 40.6 °F 42.1 °F 90% 29.50 in 10.0 mi West 8.1 mph - N/A   Overcast
2:53 AM 45.0 °F 40.6 °F 41.0 °F 86% 29.47 in 10.0 mi West 8.1 mph - 0.01 in   Overcast
3:53 AM 45.0 °F 41.2 °F 39.0 °F 80% 29.47 in 10.0 mi West 6.9 mph - N/A   Overcast
4:53 AM 44.1 °F 39.5 °F 37.9 °F 79% 29.46 in 10.0 mi West 8.1 mph - N/A   Overcast
5:53 AM 43.0 °F 39.5 °F 37.9 °F 82% 29.46 in 10.0 mi West 5.8 mph - N/A   Overcast
6:53 AM 43.0 °F 38.2 °F 37.0 °F 80% 29.47 in 10.0 mi West 8.1 mph - N/A   Overcast
7:53 AM 44.1 °F 39.0 °F 36.0 °F 73% 29.47 in 10.0 mi West 9.2 mph - N/A   Overcast
8:53 AM 45.0 °F 41.2 °F 35.1 °F 68% 29.47 in 10.0 mi West 6.9 mph - N/A   Overcast
9:53 AM 46.0 °F 41.4 °F 35.1 °F 66% 29.49 in 10.0 mi WNW 9.2 mph - N/A   Overcast
10:53 AM 48.0 °F - 34.0 °F 58% 29.51 in 10.0 mi WNW 10.4 mph 18.4 mph N/A   Overcast
11:53 AM 48.0 °F - 34.0 °F 58% 29.51 in 10.0 mi NW 15.0 mph 21.9 mph 0.00 in Rain Light Rain
12:53 PM 46.0 °F 41.0 °F 35.1 °F 66% 29.54 in 10.0 mi NW 10.4 mph 18.4 mph 0.00 in   Overcast
1:53 PM 44.1 °F 37.1 °F 37.9 °F 79% 29.56 in 10.0 mi West 15.0 mph 18.4 mph 0.00 in Rain Light Rain
2:03 PM 42.8 °F 37.0 °F 37.4 °F 81% 29.58 in 9.0 mi WNW 10.4 mph 20.7 mph 0.00 in Rain Light Rain
2:53 PM 43.0 °F 37.7 °F 39.0 °F 86% 29.58 in 10.0 mi WNW 9.2 mph - 0.02 in Rain Light Rain
3:00 PM 42.8 °F 37.5 °F 39.2 °F 87% 29.59 in 10.0 mi West 9.2 mph - 0.00 in Rain Light Rain
3:07 PM 42.8 °F 38.0 °F 39.2 °F 87% 29.59 in 9.0 mi West 8.1 mph - 0.00 in Rain Light Rain
3:49 PM 44.6 °F 40.2 °F 39.2 °F 81% 29.59 in 10.0 mi West 8.1 mph - 0.02 in Rain Light Rain
3:53 PM 44.1 °F 40.1 °F 39.9 °F 85% 29.58 in 10.0 mi West 6.9 mph - 0.02 in Rain Light Rain
4:06 PM 44.6 °F 42.2 °F 39.2 °F 81% 29.60 in 10.0 mi West 4.6 mph - 0.00 in Rain Light Rain
4:53 PM 45.0 °F 42.6 °F 37.0 °F 74% 29.59 in 10.0 mi NW 4.6 mph - 0.01 in Rain Light Rain
5:53 PM 48.0 °F - 37.9 °F 68% 29.58 in 10.0 mi WSW 3.5 mph - 0.00 in   Overcast
6:53 PM 46.0 °F 43.9 °F 39.9 °F 79% 29.59 in 10.0 mi South 4.6 mph - N/A   Overcast
7:53 PM 44.1 °F 42.5 °F 39.9 °F 85% 29.61 in 10.0 mi SSW 3.5 mph - N/A   Clear
8:53 PM 43.0 °F 40.3 °F 39.9 °F 89% 29.63 in 10.0 mi SSW 4.6 mph - N/A   Clear
9:53 PM 39.9 °F 37.8 °F 37.0 °F 89% 29.65 in 10.0 mi SSW 3.5 mph - N/A   Clear
10:53 PM 37.9 °F 35.5 °F 36.0 °F 93% 29.65 in 10.0 mi SSW 3.5 mph - N/A   Clear
11:53 PM 37.0 °F 33.3 °F 35.1 °F 93% 29.65 in 10.0 mi SSW 4.6 mph - N/A   Clear